Content
SEND FEEDBACK

Daily
Averages
Monthly
Summary
United States of America

INARAJAN, GUAM


Home > North America > United States > Guam
Elevation: 280 feet     Latitude: 13 18N     Longitude: 144 44E

WEATHER
 
SELECT A DAY
Number of Records: 342,429;   Date Range: 1/1/95 - 9/3/14
 
SHARE

PRINT THIS DATA

[ ← Previous Day ]
WEATHER ALMANAC - JULY 4, 2013
[ Next Day → ]
[ °C ]   °F
Weather ElementAverageHighLow
Temperature76.9 °F82.6 °F (4:55 pm)73.4 °F (7:05 am)
Dewpoint72.8 °F78.8 °F (12:02 am)64.4 °F (6:37 am)
Humidity87.3 %100 % (1:35 am)69 % (6:37 am)
Barometer29.84 in29.91 in (8:00 am)29.77 in (4:55 pm)
Wind Speed12.1 mph32.2 mph (5:31 am)
Wind Gust39.1 mph (5:31 am)
Weather ElementAverage
Visibility7 mi
Wind DirectionE (90.5 °)

Weather ElementTotal
Precipitation0.97 in
Cooling Degree Days13 (Base 65)
Growing Degree Days28 (Base 50)
Averaged from 110 records on July 4, 2013
WEATHER CONDITIONS BREAKOUT
WIND DIRECTION BREAKOUT
WEATHER BY HOUR - JULY 4, 2013
[ °C ]   °F
Local TimeTemperatureDewpointHumidityBarometerVisibilityWind DirectionWind SpeedGust SpeedPrecipitationEventsConditions
12:02 AM80.6 °F78.8 °F94 %29.85 in10.0 miNE (50°)11.5 mphMostly Cloudy
12:14 AM80.6 °F78.8 °F94 %29.85 in10.0 miNNE (30°)17.3 mph21.9 mphMostly Cloudy
12:20 AM80.6 °F77.0 °F89 %29.85 in10.0 miNE (40°)13.8 mphMostly Cloudy
12:22 AM80.6 °F77.0 °F89 %29.85 in10.0 miNE (40°)12.7 mphThunderstormMostly Cloudy
12:28 AM78.8 °F77.0 °F94 %29.85 in10.0 miNNE (20°)11.5 mphThunderstormLight Drizzle
12:38 AM78.8 °F77.0 °F94 %29.84 in10.0 miNNE (20°)9.2 mphScattered Clouds
12:55 AM78.6 °F77.4 °F96 %29.84 in10.0 miNorth (360°)6.9 mph0.00 inThunderstormPartly Cloudy
1:08 AM78.8 °F77.0 °F94 %29.83 in10.0 miNE (40°)9.2 mphRainLight Rain
1:35 AM78.8 °F78.8 °F100 %29.83 in5.0 miENE (60°)4.6 mphRainLight Rain
1:38 AM78.8 °F78.8 °F100 %29.83 in7.0 miENE (60°)8.1 mphRainLight Rain
1:40 AM78.8 °F78.8 °F100 %29.83 in7.0 miENE (60°)8.1 mphRainLight Rain
1:52 AM78.8 °F77.0 °F94 %29.83 in3.0 miEast (90°)12.7 mphRainHeavy Rain
1:53 AM78.8 °F77.0 °F94 %29.82 in2.5 miEast (90°)11.5 mphRainHeavy Rain
1:54 AM78.8 °F77.0 °F94 %29.82 in2.0 miEast (80°)10.4 mphRainHeavy Rain
1:55 AM78.3 °F77.4 °F97 %29.82 in2.0 miEast (80°)10.4 mph0.19 inRainHeavy Rain
1:56 AM78.8 °F77.0 °F94 %29.82 in1.8 miEast (80°)11.5 mphRainHeavy Rain
1:59 AM78.8 °F77.0 °F94 %29.83 in1.5 miEast (90°)9.2 mphRainHeavy Rain
2:00 AM77.0 °F77.0 °F100 %29.83 in1.5 miEast (100°)8.1 mphRainHeavy Rain
2:02 AM77.0 °F77.0 °F100 %29.82 in1.8 miSE (130°)9.2 mphRainHeavy Rain
2:03 AM77.0 °F75.2 °F94 %29.82 in1.8 miSE (130°)8.1 mphRainHeavy Rain
2:04 AM77.0 °F75.2 °F94 %29.82 in2.0 miSE (130°)6.9 mphRainHeavy Rain
2:05 AM77.0 °F75.2 °F94 %29.82 in2.5 miESE (120°)6.9 mphRainLight Rain
2:07 AM77.0 °F75.2 °F94 %29.82 in3.0 miESE (110°)6.9 mphRainLight Rain
2:12 AM77.0 °F75.2 °F94 %29.82 in4.0 miEast (80°)6.9 mphRainLight Rain
2:18 AM77.0 °F75.2 °F94 %29.81 in9.0 miENE (70°)6.9 mphRainLight Rain
2:20 AM77.0 °F75.2 °F94 %29.81 in10.0 miENE (70°)9.2 mphRainLight Rain
2:32 AM78.8 °F75.2 °F89 %29.81 in10.0 miENE (70°)11.5 mphRainLight Rain
2:54 AM77.0 °F75.2 °F94 %29.80 in10.0 miNE (50°)10.4 mphPartly Cloudy
2:55 AM77.7 °F75.4 °F92 %29.80 in10.0 miNE (50°)9.2 mph0.18 inPartly Cloudy
3:55 AM79.2 °F73.6 °F83 %29.80 in10.0 miNNE (30°)5.8 mphPartly Cloudy
3:59 AM78.8 °F73.4 °F83 %29.80 in10.0 miNE (40°)8.1 mphLight Drizzle
4:08 AM78.8 °F73.4 °F83 %29.80 in10.0 miNE (40°)8.1 mphPartly Cloudy
4:55 AM79.3 °F74.8 °F86 %29.80 in10.0 miNE (50°)11.5 mph0.00 inClear
5:31 AM78.8 °F73.4 °F83 %29.82 in4.0 miNE (50°)32.2 mph39.1 mphRainLight Rain
5:32 AM78.8 °F73.4 °F83 %29.83 in2.5 miNE (50°)27.6 mph39.1 mphRainLight Rain
5:33 AM77.0 °F73.4 °F89 %29.83 in1.8 miENE (60°)20.7 mph39.1 mphRainLight Rain
5:35 AM77.0 °F71.6 °F83 %29.82 in1.2 miEast (80°)16.1 mph39.1 mphRainHeavy Rain
5:36 AM77.0 °F71.6 °F83 %29.82 in1.0 miENE (70°)13.8 mph39.1 mphRainHeavy Rain
5:37 AM77.0 °F71.6 °F83 %29.82 in1.0 miENE (70°)11.5 mph39.1 mphRainHeavy Rain
5:39 AM75.2 °F71.6 °F89 %29.82 in0.8 miENE (60°)9.2 mph39.1 mphRainHeavy Rain
5:40 AM75.2 °F71.6 °F89 %29.82 in0.8 miNE (50°)9.2 mph39.1 mphRainHeavy Rain
5:41 AM75.2 °F73.4 °F94 %29.82 in0.8 miNE (50°)9.2 mphRainHeavy Rain
5:42 AM75.2 °F73.4 °F94 %29.82 in1.0 miNE (40°)9.2 mphRainHeavy Rain
5:43 AM75.2 °F73.4 °F94 %29.82 in1.0 miNE (40°)10.4 mphRainHeavy Rain
5:44 AM75.2 °F73.4 °F94 %29.82 in1.2 miNE (40°)10.4 mphRainHeavy Rain
5:45 AM77.0 °F73.4 °F89 %29.82 in1.5 miNE (40°)9.2 mphRainHeavy Rain
5:47 AM77.0 °F73.4 °F89 %29.82 in2.0 miNE (40°)10.4 mphRainLight Rain
5:48 AM77.0 °F73.4 °F89 %29.82 in3.0 miNE (40°)11.5 mphRainLight Rain
5:55 AM76.5 °F72.3 °F87 %29.83 in8.0 miEast (100°)20.7 mph39.1 mph0.46 inRainLight Rain
6:01 AM75.2 °F71.6 °F89 %29.84 in4.0 miESE (110°)15.0 mph39.1 mphRainLight Rain
6:02 AM75.2 °F71.6 °F89 %29.84 in3.0 miESE (110°)15.0 mph39.1 mphRainLight Rain
6:04 AM75.2 °F71.6 °F89 %29.84 in2.5 miESE (110°)16.1 mphRainLight Rain
6:09 AM75.2 °F71.6 °F89 %29.85 in3.0 miESE (110°)11.5 mphRainLight Rain
6:11 AM75.2 °F71.6 °F89 %29.85 in4.0 miEast (100°)11.5 mphRainLight Rain
6:23 AM75.2 °F69.8 °F83 %29.85 in9.0 miSE (130°)10.4 mphMostly Cloudy
6:27 AM75.2 °F68.0 °F78 %29.86 in10.0 miESE (120°)12.7 mphMostly Cloudy
6:32 AM75.2 °F66.2 °F73 %29.87 in9.0 miESE (120°)9.2 mphRainLight Rain
6:37 AM75.2 °F64.4 °F69 %29.87 in8.0 miESE (120°)15.0 mphRainLight Rain
6:39 AM75.2 °F66.2 °F73 %29.86 in9.0 miSE (130°)15.0 mphRainLight Rain
6:42 AM75.2 °F66.2 °F73 %29.87 in10.0 miSE (140°)11.5 mphRainLight Rain
6:47 AM75.2 °F66.2 °F73 %29.87 in10.0 miESE (120°)9.2 mphMostly Cloudy
6:48 AM75.2 °F66.2 °F73 %29.87 in10.0 miSE (130°)9.2 mphRainLight Rain
6:55 AM75.7 °F67.8 °F76 %29.88 in9.0 miEast (100°)18.4 mph24.2 mph0.03 inLight Drizzle
6:57 AM75.2 °F68.0 °F78 %29.89 in7.0 miEast (100°)21.9 mph27.6 mphLight Drizzle
6:58 AM75.2 °F68.0 °F78 %29.89 in6.0 miESE (110°)20.7 mph27.6 mphLight Drizzle
7:05 AM73.4 °F68.0 °F83 %29.89 in2.5 miESE (110°)13.8 mph27.6 mphRainRain
7:07 AM73.4 °F68.0 °F83 %29.89 in2.0 miSE (130°)16.1 mph23.0 mphRainRain
7:10 AM73.4 °F68.0 °F83 %29.89 in2.0 miESE (120°)17.3 mph23.0 mphRainHeavy Rain
7:13 AM73.4 °F68.0 °F83 %29.89 in2.5 miSE (130°)13.8 mph23.0 mphRainLight Rain
7:15 AM73.4 °F68.0 °F83 %29.89 in3.0 miSE (130°)13.8 mph23.0 mphRainLight Rain
7:24 AM73.4 °F68.0 °F83 %29.89 in10.0 miSE (140°)12.7 mphRainLight Rain
7:28 AM73.4 °F69.8 °F88 %29.89 in10.0 miSE (140°)15.0 mphScattered Clouds
7:29 AM73.4 °F69.8 °F88 %29.89 in10.0 miSE (140°)13.8 mphLight Drizzle
7:30 AM73.4 °F69.8 °F88 %29.89 in10.0 miSE (140°)13.8 mphScattered Clouds
7:31 AM73.4 °F69.8 °F88 %29.89 in10.0 miSE (140°)11.5 mphLight Drizzle
7:41 AM73.4 °F68.0 °F83 %29.90 in10.0 miSE (130°)11.5 mphPartly Cloudy
7:48 AM73.4 °F68.0 °F83 %29.90 in10.0 miESE (120°)10.4 mphMostly Cloudy
7:52 AM73.4 °F68.0 °F83 %29.90 in10.0 miESE (120°)9.2 mphMostly Cloudy
7:53 AM73.4 °F68.0 °F83 %29.90 in10.0 miESE (120°)8.1 mphMostly Cloudy
7:55 AM73.8 °F67.6 °F81 %29.90 in10.0 miESE (110°)8.1 mph0.07 inMostly Cloudy
7:57 AM73.4 °F68.0 °F83 %29.90 in10.0 miESE (110°)9.2 mphRainLight Rain
8:00 AM73.4 °F66.2 °F78 %29.91 in10.0 miESE (110°)9.2 mphRainLight Rain
8:03 AM73.4 °F66.2 °F78 %29.91 in10.0 miEast (100°)11.5 mphRainLight Rain
8:08 AM75.2 °F64.4 °F69 %29.91 in10.0 miEast (90°)17.3 mph20.7 mphRainLight Rain
8:17 AM75.2 °F66.2 °F73 %29.91 in10.0 miEast (100°)17.3 mph28.8 mphRainLight Rain
8:19 AM75.2 °F66.2 °F73 %29.91 in10.0 miESE (110°)17.3 mph28.8 mphRainLight Rain
8:55 AM75.4 °F71.2 °F87 %29.89 in10.0 miEast (90°)19.6 mph25.3 mph0.01 inRainLight Rain
9:38 AM75.2 °F71.6 °F89 %29.88 in10.0 miESE (110°)21.9 mphClear
9:55 AM75.7 °F72.0 °F88 %29.87 in10.0 miESE (110°)15.0 mph24.2 mph0.01 inClear
10:12 AM75.2 °F73.4 °F94 %29.86 in10.0 miESE (120°)15.0 mphRainLight Rain
10:28 AM77.0 °F73.4 °F89 %29.86 in10.0 miESE (120°)16.1 mphRainLight Rain
10:30 AM77.0 °F73.4 °F89 %29.86 in10.0 miESE (120°)17.3 mphRainLight Rain
10:55 AM76.1 °F71.8 °F86 %29.86 in10.0 miEast (100°)13.8 mph0.01 inRainLight Rain
11:42 AM77.0 °F71.6 °F83 %29.80 in10.0 miSE (130°)11.5 mphClear
11:55 AM79.0 °F70.9 °F76 %29.79 in10.0 miESE (120°)13.8 mph0.01 inClear
12:55 PM81.5 °F73.8 °F77 %29.79 in10.0 miEast (100°)13.8 mphMostly Cloudy
1:55 PM82.0 °F76.1 °F82 %29.79 in10.0 miENE (70°)17.3 mphMostly Cloudy
2:55 PM81.5 °F76.5 °F85 %29.79 in10.0 miENE (70°)17.3 mphScattered Clouds
3:55 PM81.7 °F77.4 °F87 %29.78 in10.0 miENE (60°)10.4 mphMostly Cloudy
4:55 PM82.6 °F78.1 °F86 %29.77 in10.0 miEast (80°)11.5 mphScattered Clouds
5:55 PM81.0 °F78.1 °F91 %29.78 in10.0 miENE (60°)9.2 mphScattered Clouds
6:54 PM78.8 °F77.0 °F94 %29.79 in10.0 miENE (70°)5.8 mphMostly Cloudy
6:55 PM79.5 °F77.5 °F94 %29.79 in10.0 miENE (70°)5.8 mphMostly Cloudy
7:03 PM78.8 °F77.0 °F94 %29.79 in10.0 miEast (90°)5.8 mphMostly Cloudy
7:55 PM79.7 °F77.5 °F93 %29.81 in10.0 miEast (90°)8.1 mphMostly Cloudy
8:10 PM78.8 °F77.0 °F94 %29.81 in10.0 miEast (80°)6.9 mphMostly Cloudy
8:55 PM79.9 °F77.5 °F93 %29.83 in10.0 miENE (70°)9.2 mphMostly Cloudy
9:55 PM79.2 °F76.6 °F92 %29.85 in10.0 miENE (70°)9.2 mphScattered Clouds
10:55 PM79.2 °F77.0 °F93 %29.86 in10.0 miNE (50°)6.9 mphPartly Cloudy
11:55 PM78.8 °F74.8 °F88 %29.84 in10.0 miENE (60°)12.7 mphClear
Hourly data recorded from PGUA, located miles away from Inarajan, Guam







STORIES FROM OUR PARTNERS